Home   Weather   Arequipa   Past weeks

Flag for Peru Past Weather in Arequipa, Arequipa, Peru — Yesterday and Last 2 Weeks

Now
59 °F

Broken clouds.


Feels Like: 57 °F
Forecast: 53 / 64 °F
Wind: 12 mph from West

Location: Arequipa Airport

Current Time: Feb 23, 2017 at 1:45:50 pm

Latest Report: Feb 23, 2017 at 1:00 pm


Visibility: N/A

Pressure: 30.30 "Hg (22.94 "Hg at 2345m altitude)

Humidity: 72%

Dew Point: 50 °F

Location of ArequipaLocation

Past Weather in Arequipa — Graph

°F

Arequipa Temperature Yesterday

Maximum temperature yesterday: 63 °F (at 10:00 am)
Minimum temperature yesterday: 50 °F (at 6:00 am)
Average temperature yesterday: 57 °F

High & Low Weather Summary for the Past Weeks

 TemperatureHumidityPressure
High70 °F (Feb 8, 1:00 pm)100% (Feb 11, 11:00 pm)30.42 "Hg (Feb 11, 11:00 pm)
Low48 °F (Feb 16, 6:00 am)46% (Feb 8, 1:00 pm)30.21 "Hg (Feb 12, 1:00 pm)
Average56 °F82%30.31 "Hg
* Reported Feb 8 12:00 pm — Feb 23 12:00 pm, Arequipa, Weather by CustomWeather, © 2017

Note: Actual official high and low records may vary slightly from our data, if they occured in-between our weather recording intervals... More about our weather records

Advertising

Arequipa Weather History for the Previous 24 Hours

Scroll right to see more
 ConditionsComfort  
Time TempWeatherWind HumidityBarometerVisibility
12:00 pm
Thu, Feb 23
61 °FBroken clouds.9 mph68%30.30 "HgN/A
11:00 am61 °FBroken clouds.8 mph68%30.33 "HgN/A
10:00 am61 °FBroken clouds.2 mph72%30.33 "HgN/A
9:00 am63 °FScattered clouds.2 mph68%30.33 "HgN/A
8:00 am55 °FPartly sunny.2 mph82%30.33 "HgN/A
7:00 am54 °FBroken clouds.6 mph88%30.30 "HgN/A
6:00 am52 °FScattered clouds.3 mph94%30.30 "HgN/A
5:00 am54 °FPassing clouds.3 mph88%30.27 "HgN/A
4:00 am52 °FPassing clouds.2 mph88%30.27 "HgN/A
3:00 am52 °FPassing clouds.5 mph94%30.27 "HgN/A
2:00 am54 °FPassing clouds.5 mph88%30.27 "HgN/A
1:00 am54 °FPassing clouds.5 mph94%30.30 "HgN/A
12:00 am54 °FPassing clouds.2 mph94%30.30 "HgN/A
11:00 pm
Wed, Feb 22
54 °FPassing clouds.3 mph94%30.33 "HgN/A
10:00 pm55 °FPassing clouds.6 mph88%30.30 "HgN/A
9:00 pm54 °FPartly cloudy.6 mph94%30.33 "HgN/A
8:00 pm54 °FPartly cloudy.3 mph88%30.30 "HgN/A
7:00 pm54 °FPartly cloudy.9 mph88%30.27 "HgN/A
6:35 pm55 °FPartly cloudy.10 mph82%30.27 "HgN/A
6:00 pm57 °FBroken clouds.13 mph82%30.24 "HgN/A
5:00 pm59 °FBroken clouds.13 mph77%30.24 "HgN/A
4:00 pm61 °FBroken clouds.12 mph68%30.21 "HgN/A
3:00 pm63 °FBroken clouds.12 mph64%30.24 "HgN/A
2:00 pm63 °FBroken clouds.8 mph59%30.24 "HgN/A
1:00 pm63 °FPartly sunny.13 mph64%30.27 "HgN/A
Weather by CustomWeather, © 2017

See weather overviewHow to use our weather pages